Time,TemperatureF,DewpointF,PressureIn,WindDirection,WindDirectionDegrees,WindSpeedMPH,WindSpeedGustMPH,Humidity,HourlyPrecipIn,Conditions,Clouds,dailyrainin,SoftwareType,DateUTC
2013-02-09 00:00:00,63.1,60.4,30.01,ESE,107,6.2,12.2,91,0.00,,---,0.01,VWS V14.01,2013-02-09 06:00:00,
2013-02-09 00:05:00,63.2,60.5,30.01,East,94,5.2,11.2,91,0.00,,---,0.00,VWS V14.01,2013-02-09 06:05:00,
2013-02-09 00:10:00,63.1,60.1,30.01,ENE,72,14.2,14.2,90,0.00,,---,0.00,VWS V14.01,2013-02-09 06:10:00,
2013-02-09 00:15:00,63.1,59.8,30.00,ESE,107,10.2,12.2,89,0.00,,---,0.00,VWS V14.01,2013-02-09 06:15:00,
2013-02-09 00:20:00,63.2,59.9,30.00,East,88,7.2,13.2,89,0.00,,---,0.00,VWS V14.01,2013-02-09 06:20:00,
2013-02-09 00:25:00,63.4,60.1,30.00,East,89,7.2,10.2,89,0.00,,---,0.00,VWS V14.01,2013-02-09 06:25:00,
2013-02-09 00:30:00,63.2,59.9,30.00,East,87,5.2,11.2,89,0.00,,---,0.00,VWS V14.01,2013-02-09 06:30:00,
2013-02-09 00:35:00,63.2,60.2,30.00,ESE,106,5.2,10.2,90,0.00,,---,0.00,VWS V14.01,2013-02-09 06:35:00,
2013-02-09 00:40:00,63.2,60.2,30.00,ENE,74,5.2,12.2,90,0.00,,---,0.00,VWS V14.01,2013-02-09 06:40:00,
2013-02-09 00:45:00,63.1,60.1,29.99,ESE,104,6.2,15.2,90,0.00,,---,0.00,VWS V14.01,2013-02-09 06:45:00,
2013-02-09 00:50:00,63.1,60.1,29.99,East,88,6.2,11.2,90,0.00,,---,0.00,VWS V14.01,2013-02-09 06:50:00,
2013-02-09 00:55:00,63.1,60.1,29.99,East,86,5.2,10.2,90,0.00,,---,0.00,VWS V14.01,2013-02-09 06:55:00,
2013-02-09 01:00:00,62.9,60.2,29.99,East,81,3.2,10.2,91,0.00,,---,0.00,VWS V14.01,2013-02-09 07:00:00,
2013-02-09 01:05:00,62.9,60.2,29.99,ESE,113,6.2,8.2,91,0.00,,---,0.00,VWS V14.01,2013-02-09 07:05:00,
2013-02-09 01:10:00,62.7,60.0,29.99,ESE,120,11.2,11.2,91,0.00,,---,0.00,VWS V14.01,2013-02-09 07:10:00,
2013-02-09 01:15:00,62.7,60.0,29.99,East,100,4.2,9.2,91,0.00,,---,0.00,VWS V14.01,2013-02-09 07:15:00,
2013-02-09 01:20:00,62.7,61.2,29.99,ESE,104,3.2,11.2,95,0.00,,---,0.00,VWS V14.01,2013-02-09 07:20:00,
2013-02-09 01:25:00,62.7,60.0,29.99,East,96,6.2,11.2,91,0.00,,---,0.00,VWS V14.01,2013-02-09 07:25:00,
2013-02-09 01:30:00,62.6,60.2,29.99,East,98,6.2,8.2,92,0.00,,---,0.00,VWS V14.01,2013-02-09 07:30:00,
2013-02-09 01:35:00,62.6,60.2,29.99,ESE,121,11.2,11.2,92,0.00,,---,0.00,VWS V14.01,2013-02-09 07:35:00,
2013-02-09 01:40:00,62.6,59.9,29.99,ESE,115,4.2,12.2,91,0.00,,---,0.00,VWS V14.01,2013-02-09 07:40:00,
2013-02-09 01:45:00,62.7,60.0,29.99,ESE,109,5.2,10.2,91,0.00,,---,0.00,VWS V14.01,2013-02-09 07:45:00,
2013-02-09 01:50:00,62.7,60.0,29.99,East,87,6.2,8.2,91,0.00,,---,0.00,VWS V14.01,2013-02-09 07:50:00,
2013-02-09 01:55:00,62.7,60.0,29.99,East,100,5.2,10.2,91,0.00,,---,0.00,VWS V14.01,2013-02-09 07:55:00,
2013-02-09 02:00:00,62.9,59.9,29.99,ESE,102,5.2,10.2,90,0.00,,---,0.00,VWS V14.01,2013-02-09 08:00:00,
2013-02-09 02:05:00,63.1,60.1,29.99,East,86,6.2,8.2,90,0.00,,---,0.00,VWS V14.01,2013-02-09 08:05:00,
2013-02-09 02:10:00,63.1,60.1,29.99,East,100,6.2,7.2,90,0.00,,---,0.00,VWS V14.01,2013-02-09 08:10:00,
2013-02-09 02:15:00,63.2,60.2,29.98,East,98,5.2,9.2,90,0.00,,---,0.00,VWS V14.01,2013-02-09 08:15:00,
2013-02-09 02:20:00,63.2,60.2,29.98,East,94,7.2,7.2,90,0.00,,---,0.00,VWS V14.01,2013-02-09 08:20:00,
2013-02-09 02:25:00,63.2,60.2,29.98,East,98,3.2,8.2,90,0.00,,---,0.00,VWS V14.01,2013-02-09 08:25:00,
2013-02-09 02:30:00,63.2,60.5,29.98,East,94,4.2,6.2,91,0.00,,---,0.00,VWS V14.01,2013-02-09 08:30:00,
2013-02-09 02:35:00,63.1,60.4,29.98,East,89,5.2,6.2,91,0.00,,---,0.00,VWS V14.01,2013-02-09 08:35:00,
2013-02-09 02:40:00,62.9,60.2,29.98,East,90,4.2,6.2,91,0.00,,---,0.00,VWS V14.01,2013-02-09 08:40:00,
2013-02-09 02:45:00,63.1,60.4,29.97,ESE,107,4.2,7.2,91,0.00,,---,0.00,VWS V14.01,2013-02-09 08:45:00,
2013-02-09 02:50:00,63.2,60.5,29.97,ESE,108,5.2,6.2,91,0.00,,---,0.00,VWS V14.01,2013-02-09 08:50:00,
2013-02-09 02:55:00,63.4,60.7,29.97,NE,48,7.2,10.2,91,0.00,,---,0.00,VWS V14.01,2013-02-09 08:55:00,
2013-02-09 03:00:00,63.5,60.8,29.97,East,88,4.2,6.2,91,0.00,,---,0.00,VWS V14.01,2013-02-09 09:00:00,
2013-02-09 03:05:00,63.5,60.8,29.97,East,98,3.2,6.2,91,0.00,,---,0.00,VWS V14.01,2013-02-09 09:05:00,
2013-02-09 03:10:00,63.5,60.8,29.97,ENE,57,6.2,7.2,91,0.00,,---,0.00,VWS V14.01,2013-02-09 09:10:00,
2013-02-09 03:15:00,63.7,61.0,29.96,East,84,4.2,8.2,91,0.00,,---,0.00,VWS V14.01,2013-02-09 09:15:00,
2013-02-09 03:20:00,63.7,60.7,29.96,East,81,7.2,8.2,90,0.00,,---,0.00,VWS V14.01,2013-02-09 09:20:00,
2013-02-09 03:25:00,63.9,60.9,29.96,East,81,3.2,7.2,90,0.00,,---,0.00,VWS V14.01,2013-02-09 09:25:00,
2013-02-09 03:30:00,64.0,61.0,29.96,East,92,5.2,10.2,90,0.00,,---,0.00,VWS V14.01,2013-02-09 09:30:00,
2013-02-09 03:35:00,64.0,61.0,29.96,NE,54,2.2,7.2,90,0.00,,---,0.00,VWS V14.01,2013-02-09 09:35:00,
2013-02-09 03:40:00,64.0,61.3,29.96,East,92,3.2,7.2,91,0.00,,---,0.00,VWS V14.01,2013-02-09 09:40:00,
2013-02-09 03:45:00,64.0,61.3,29.96,East,91,5.2,7.2,91,0.00,,---,0.00,VWS V14.01,2013-02-09 09:45:00,
2013-02-09 03:50:00,64.0,61.3,29.96,East,85,3.2,8.2,91,0.00,,---,0.00,VWS V14.01,2013-02-09 09:50:00,
2013-02-09 03:55:00,64.0,61.3,29.96,East,86,6.2,8.2,91,0.00,,---,0.00,VWS V14.01,2013-02-09 09:55:00,
2013-02-09 04:00:00,64.2,61.5,29.95,East,88,2.2,7.2,91,0.00,,---,0.00,VWS V14.01,2013-02-09 10:00:00,
2013-02-09 04:05:00,64.2,61.5,29.95,East,80,6.2,6.2,91,0.00,,---,0.00,VWS V14.01,2013-02-09 10:05:00,
2013-02-09 04:10:00,64.2,61.5,29.95,ENE,74,6.2,6.2,91,0.00,,---,0.00,VWS V14.01,2013-02-09 10:10:00,
2013-02-09 04:15:00,64.2,61.5,29.95,East,80,4.2,7.2,91,0.00,,---,0.00,VWS V14.01,2013-02-09 10:15:00,
2013-02-09 04:20:00,64.2,61.8,29.95,ENE,67,5.2,10.2,92,0.00,,---,0.00,VWS V14.01,2013-02-09 10:20:00,
2013-02-09 04:25:00,64.2,61.8,29.95,East,87,7.2,8.2,92,0.00,,---,0.00,VWS V14.01,2013-02-09 10:25:00,
2013-02-09 04:30:00,64.2,61.8,29.95,ENE,64,4.2,7.2,92,0.00,,---,0.00,VWS V14.01,2013-02-09 10:30:00,
2013-02-09 04:35:00,64.2,61.8,29.95,East,101,4.2,7.2,92,0.00,,---,0.00,VWS V14.01,2013-02-09 10:35:00,
2013-02-09 04:40:00,64.2,61.8,29.95,ENE,69,5.2,8.2,92,0.00,,---,0.00,VWS V14.01,2013-02-09 10:40:00,
2013-02-09 04:45:00,64.3,61.9,29.95,ENE,74,4.2,10.2,92,0.00,,---,0.00,VWS V14.01,2013-02-09 10:45:00,
2013-02-09 04:50:00,64.3,61.9,29.95,East,80,3.2,8.2,92,0.00,,---,0.00,VWS V14.01,2013-02-09 10:50:00,
2013-02-09 04:55:00,64.3,61.9,29.95,ENE,71,4.2,6.2,92,0.00,,---,0.00,VWS V14.01,2013-02-09 10:55:00,
2013-02-09 05:00:00,64.3,61.9,29.95,ENE,72,5.2,7.2,92,0.00,,---,0.00,VWS V14.01,2013-02-09 11:00:00,
2013-02-09 05:05:00,64.5,62.1,29.95,ENE,74,3.2,7.2,92,0.00,,---,0.00,VWS V14.01,2013-02-09 11:05:00,
2013-02-09 05:10:00,64.5,62.1,29.95,East,89,5.2,8.2,92,0.00,,---,0.00,VWS V14.01,2013-02-09 11:10:00,
2013-02-09 05:15:00,64.5,62.1,29.95,East,84,7.2,7.2,92,0.00,,---,0.00,VWS V14.01,2013-02-09 11:15:00,
2013-02-09 05:20:00,64.7,62.3,29.95,East,82,4.2,7.2,92,0.00,,---,0.00,VWS V14.01,2013-02-09 11:20:00,
2013-02-09 05:25:00,64.7,62.3,29.95,ENE,75,5.2,8.2,92,0.00,,---,0.00,VWS V14.01,2013-02-09 11:25:00,
2013-02-09 05:30:00,64.7,62.3,29.95,East,84,5.2,7.2,92,0.00,,---,0.00,VWS V14.01,2013-02-09 11:30:00,
2013-02-09 05:35:00,64.7,62.3,29.95,ENE,71,6.2,8.2,92,0.00,,---,0.00,VWS V14.01,2013-02-09 11:35:00,
2013-02-09 05:40:00,64.7,62.3,29.95,ENE,69,7.2,7.2,92,0.00,,---,0.00,VWS V14.01,2013-02-09 11:40:00,
2013-02-09 05:45:00,64.7,62.3,29.95,ENE,72,7.2,8.2,92,0.00,,---,0.00,VWS V14.01,2013-02-09 11:45:00,
2013-02-09 05:50:00,64.7,62.3,29.95,East,81,6.2,10.2,92,0.00,,---,0.00,VWS V14.01,2013-02-09 11:50:00,
2013-02-09 05:55:00,64.7,62.3,29.95,East,90,5.2,9.2,92,0.00,,---,0.00,VWS V14.01,2013-02-09 11:55:00,
2013-02-09 06:00:00,64.8,62.4,29.95,ENE,73,5.2,10.2,92,0.00,,---,0.00,VWS V14.01,2013-02-09 12:00:00,
2013-02-09 06:05:00,64.8,62.4,29.95,ENE,63,4.2,8.2,92,0.00,,---,0.00,VWS V14.01,2013-02-09 12:05:00,
2013-02-09 06:10:00,64.8,62.4,29.95,NNE,27,2.2,8.2,92,0.00,,---,0.00,VWS V14.01,2013-02-09 12:10:00,
2013-02-09 06:15:00,64.8,62.4,29.95,ENE,77,4.2,8.2,92,0.00,,---,0.00,VWS V14.01,2013-02-09 12:15:00,
2013-02-09 06:20:00,64.8,62.4,29.95,ENE,69,5.2,7.2,92,0.00,,---,0.00,VWS V14.01,2013-02-09 12:20:00,
2013-02-09 06:25:00,65.0,62.6,29.95,ENE,70,4.2,5.2,92,0.00,,---,0.00,VWS V14.01,2013-02-09 12:25:00,
2013-02-09 06:30:00,65.0,62.6,29.95,ENE,63,8.2,8.2,92,0.00,,---,0.00,VWS V14.01,2013-02-09 12:30:00,
2013-02-09 06:35:00,65.0,62.6,29.95,East,82,5.2,6.2,92,0.00,,---,0.00,VWS V14.01,2013-02-09 12:35:00,
2013-02-09 06:40:00,65.2,63.1,29.95,ENE,67,6.2,8.2,93,0.00,,---,0.00,VWS V14.01,2013-02-09 12:40:00,
2013-02-09 06:45:00,65.2,63.1,29.95,ENE,69,6.2,8.2,93,0.00,,---,0.00,VWS V14.01,2013-02-09 12:45:00,
2013-02-09 06:50:00,65.2,63.1,29.95,East,79,6.2,11.2,93,0.00,,---,0.00,VWS V14.01,2013-02-09 12:50:00,
2013-02-09 06:55:00,65.2,63.1,29.95,East,79,4.2,11.2,93,0.00,,---,0.00,VWS V14.01,2013-02-09 12:55:00,
2013-02-09 07:00:00,65.3,63.2,29.95,ENE,70,6.2,7.2,93,0.00,,---,0.00,VWS V14.01,2013-02-09 13:00:00,
2013-02-09 07:05:00,65.3,63.2,29.95,ENE,74,8.2,10.2,93,0.00,,---,0.00,VWS V14.01,2013-02-09 13:05:00,
2013-02-09 07:10:00,65.3,63.2,29.95,ESE,103,5.2,11.2,93,0.00,,---,0.00,VWS V14.01,2013-02-09 13:10:00,
2013-02-09 07:15:00,65.3,63.2,29.95,East,84,5.2,10.2,93,0.00,,---,0.00,VWS V14.01,2013-02-09 13:15:00,
2013-02-09 07:20:00,65.5,63.4,29.95,East,86,5.2,10.2,93,0.00,,---,0.00,VWS V14.01,2013-02-09 13:20:00,
2013-02-09 07:25:00,65.5,63.4,29.95,East,100,6.2,11.2,93,0.00,,---,0.00,VWS V14.01,2013-02-09 13:25:00,
2013-02-09 07:30:00,65.5,63.4,29.95,ENE,70,8.2,11.2,93,0.00,,---,0.00,VWS V14.01,2013-02-09 13:30:00,
2013-02-09 07:35:00,65.5,63.4,29.94,East,90,4.2,10.2,93,0.00,,---,0.00,VWS V14.01,2013-02-09 13:35:00,
2013-02-09 07:40:00,65.5,63.4,29.94,ENE,72,6.2,12.2,93,0.00,,---,0.00,VWS V14.01,2013-02-09 13:40:00,
2013-02-09 07:45:00,65.6,63.5,29.94,East,93,7.2,10.2,93,0.00,,---,0.00,VWS V14.01,2013-02-09 13:45:00,
2013-02-09 07:50:00,65.6,63.5,29.95,East,81,6.2,11.2,93,0.00,,---,0.00,VWS V14.01,2013-02-09 13:50:00,
2013-02-09 07:55:00,65.8,63.7,29.95,East,90,7.2,12.2,93,0.00,,---,0.00,VWS V14.01,2013-02-09 13:55:00,
2013-02-09 08:00:00,65.8,63.7,29.95,ESE,103,8.2,8.2,93,0.00,,---,0.00,VWS V14.01,2013-02-09 14:00:00,
2013-02-09 08:05:00,66.0,63.9,29.95,ESE,107,7.2,9.2,93,0.00,,---,0.00,VWS V14.01,2013-02-09 14:05:00,
2013-02-09 08:10:00,66.0,63.9,29.95,ESE,122,11.2,11.2,93,0.00,,---,0.00,VWS V14.01,2013-02-09 14:10:00,
2013-02-09 08:15:00,66.0,63.9,29.95,ESE,113,9.2,10.2,93,0.00,,---,0.00,VWS V14.01,2013-02-09 14:15:00,
2013-02-09 08:20:00,66.0,63.9,29.95,ESE,110,2.2,12.2,93,0.00,,---,0.00,VWS V14.01,2013-02-09 14:20:00,
2013-02-09 08:25:00,66.1,64.0,29.95,East,98,7.2,11.2,93,0.00,,---,0.00,VWS V14.01,2013-02-09 14:25:00,
2013-02-09 08:30:00,66.1,64.0,29.95,ESE,103,6.2,11.2,93,0.00,,---,0.00,VWS V14.01,2013-02-09 14:30:00,
2013-02-09 08:35:00,66.1,64.0,29.95,East,92,6.2,10.2,93,0.00,,---,0.00,VWS V14.01,2013-02-09 14:35:00,
2013-02-09 08:40:00,66.1,64.3,29.95,East,80,5.2,12.2,94,0.00,,---,0.00,VWS V14.01,2013-02-09 14:40:00,
2013-02-09 08:45:00,66.1,64.3,29.95,East,93,4.2,10.2,94,0.00,,---,0.00,VWS V14.01,2013-02-09 14:45:00,
2013-02-09 08:50:00,66.1,64.3,29.95,East,88,11.2,12.2,94,0.00,,---,0.00,VWS V14.01,2013-02-09 14:50:00,
2013-02-09 08:55:00,66.1,64.3,29.95,ENE,70,8.2,12.2,94,0.00,,---,0.00,VWS V14.01,2013-02-09 14:55:00,
2013-02-09 09:00:00,66.3,64.5,29.95,East,94,7.2,10.2,94,0.00,,---,0.00,VWS V14.01,2013-02-09 15:00:00,
2013-02-09 09:05:00,66.3,64.5,29.95,East,96,6.2,10.2,94,0.00,,---,0.00,VWS V14.01,2013-02-09 15:05:00,
2013-02-09 09:10:00,66.3,64.5,29.95,East,93,5.2,11.2,94,0.00,,---,0.00,VWS V14.01,2013-02-09 15:10:00,
2013-02-09 09:15:00,66.3,64.5,29.95,East,87,7.2,10.2,94,0.00,,---,0.00,VWS V14.01,2013-02-09 15:15:00,
2013-02-09 09:20:00,66.3,64.5,29.95,East,97,6.2,10.2,94,0.00,,---,0.00,VWS V14.01,2013-02-09 15:20:00,
2013-02-09 09:25:00,66.4,64.9,29.95,East,92,7.2,11.2,95,0.00,,---,0.00,VWS V14.01,2013-02-09 15:25:00,
2013-02-09 09:30:00,66.6,65.1,29.95,ESE,113,5.2,11.2,95,0.00,,---,0.00,VWS V14.01,2013-02-09 15:30:00,
2013-02-09 09:35:00,66.6,65.1,29.96,ESE,119,10.2,11.2,95,0.00,,---,0.00,VWS V14.01,2013-02-09 15:35:00,
2013-02-09 09:40:00,66.6,65.1,29.96,East,82,9.2,11.2,95,0.00,,---,0.00,VWS V14.01,2013-02-09 15:40:00,
2013-02-09 09:45:00,66.6,65.1,29.96,ESE,113,5.2,10.2,95,0.00,,---,0.00,VWS V14.01,2013-02-09 15:45:00,
2013-02-09 09:50:00,66.6,65.1,29.96,East,87,4.2,10.2,95,0.00,,---,0.00,VWS V14.01,2013-02-09 15:50:00,
2013-02-09 09:55:00,66.8,65.3,29.96,East,89,7.2,11.2,95,0.00,,---,0.00,VWS V14.01,2013-02-09 15:55:00,
2013-02-09 10:00:00,66.8,65.3,29.96,ENE,77,4.2,11.2,95,0.00,,---,0.00,VWS V14.01,2013-02-09 16:00:00,
2013-02-09 10:05:00,66.8,65.6,29.96,ENE,75,6.2,8.2,96,0.00,,---,0.00,VWS V14.01,2013-02-09 16:05:00,
2013-02-09 10:10:00,66.9,65.4,29.96,ESE,105,5.2,10.2,95,0.00,,---,0.00,VWS V14.01,2013-02-09 16:10:00,
2013-02-09 10:15:00,67.1,65.6,29.96,East,98,3.2,11.2,95,0.00,,---,0.00,VWS V14.01,2013-02-09 16:15:00,
2013-02-09 10:20:00,67.1,65.6,29.96,East,80,10.2,12.2,95,0.00,,---,0.00,VWS V14.01,2013-02-09 16:20:00,
2013-02-09 10:25:00,67.4,65.9,29.96,ESE,113,4.2,12.2,95,0.00,,---,0.00,VWS V14.01,2013-02-09 16:25:00,
2013-02-09 10:30:00,67.4,65.9,29.96,East,83,7.2,12.2,95,0.00,,---,0.00,VWS V14.01,2013-02-09 16:30:00,
2013-02-09 10:35:00,67.6,66.1,29.96,East,89,5.2,10.2,95,0.00,,---,0.00,VWS V14.01,2013-02-09 16:35:00,
2013-02-09 10:40:00,67.8,66.3,29.96,ESE,103,5.2,12.2,95,0.00,,---,0.00,VWS V14.01,2013-02-09 16:40:00,
2013-02-09 10:45:00,67.8,66.3,29.96,ESE,105,6.2,11.2,95,0.00,,---,0.00,VWS V14.01,2013-02-09 16:45:00,
2013-02-09 10:50:00,67.8,66.3,29.96,SE,126,5.2,9.2,95,0.00,,---,0.00,VWS V14.01,2013-02-09 16:50:00,
2013-02-09 10:55:00,67.9,66.4,29.96,ESE,119,5.2,10.2,95,0.00,,---,0.00,VWS V14.01,2013-02-09 16:55:00,
2013-02-09 11:00:00,67.9,66.4,29.96,ESE,119,4.2,11.2,95,0.00,,---,0.00,VWS V14.01,2013-02-09 17:00:00,
2013-02-09 11:05:00,68.1,66.6,29.95,ESE,121,7.2,10.2,95,0.00,,---,0.00,VWS V14.01,2013-02-09 17:05:00,
2013-02-09 11:10:00,68.3,66.8,29.95,ESE,103,4.2,11.2,95,0.00,,---,0.00,VWS V14.01,2013-02-09 17:10:00,
2013-02-09 11:15:00,68.3,66.8,29.95,SE,127,4.2,10.2,95,0.00,,---,0.00,VWS V14.01,2013-02-09 17:15:00,
2013-02-09 11:20:00,68.4,66.9,29.95,ESE,109,5.2,11.2,95,0.00,,---,0.00,VWS V14.01,2013-02-09 17:20:00,
2013-02-09 11:25:00,68.4,66.9,29.95,SE,127,4.2,13.2,95,0.00,,---,0.00,VWS V14.01,2013-02-09 17:25:00,
2013-02-09 11:30:00,68.4,66.9,29.95,ESE,116,11.2,12.2,95,0.00,,---,0.00,VWS V14.01,2013-02-09 17:30:00,
2013-02-09 11:35:00,68.6,67.1,29.93,East,93,5.2,12.2,95,0.00,,---,0.00,VWS V14.01,2013-02-09 17:35:00,
2013-02-09 11:40:00,68.9,67.4,29.93,ESE,103,6.2,13.2,95,0.00,,---,0.00,VWS V14.01,2013-02-09 17:40:00,
2013-02-09 11:45:00,69.4,67.6,29.93,ESE,121,6.2,13.2,94,0.00,,---,0.00,VWS V14.01,2013-02-09 17:45:00,
2013-02-09 11:50:00,69.6,67.8,29.93,SE,142,10.2,13.2,94,0.00,,---,0.00,VWS V14.01,2013-02-09 17:50:00,
2013-02-09 11:55:00,69.8,67.7,29.93,ESE,117,6.2,15.2,93,0.00,,---,0.00,VWS V14.01,2013-02-09 17:55:00,
2013-02-09 12:00:00,70.3,67.9,29.93,ESE,123,7.2,13.2,92,0.00,,---,0.00,VWS V14.01,2013-02-09 18:00:00,
2013-02-09 12:05:00,70.8,68.4,29.92,SE,131,8.2,15.2,92,0.00,,---,0.00,VWS V14.01,2013-02-09 18:05:00,
2013-02-09 12:10:00,70.9,67.8,29.92,ESE,111,6.2,13.2,90,0.00,,---,0.00,VWS V14.01,2013-02-09 18:10:00,
2013-02-09 12:15:00,71.1,68.0,29.92,ESE,119,8.2,12.2,90,0.00,,---,0.00,VWS V14.01,2013-02-09 18:15:00,
2013-02-09 12:20:00,71.5,68.1,29.91,ESE,120,12.2,15.2,89,0.00,,---,0.00,VWS V14.01,2013-02-09 18:20:00,
2013-02-09 12:25:00,71.8,68.1,29.91,SE,138,7.2,15.2,88,0.00,,---,0.00,VWS V14.01,2013-02-09 18:25:00,
2013-02-09 12:30:00,72.0,68.3,29.91,SE,140,6.2,16.2,88,0.00,,---,0.00,VWS V14.01,2013-02-09 18:30:00,
2013-02-09 12:35:00,72.5,68.4,29.90,SE,132,14.2,17.2,87,0.00,,---,0.00,VWS V14.01,2013-02-09 18:35:00,
2013-02-09 12:40:00,72.7,67.9,29.90,SE,143,15.2,20.2,85,0.00,,---,0.00,VWS V14.01,2013-02-09 18:40:00,
2013-02-09 12:45:00,72.7,67.9,29.90,ESE,113,12.2,22.2,85,0.00,,---,0.00,VWS V14.01,2013-02-09 18:45:00,
2013-02-09 12:50:00,72.7,68.3,29.89,SSE,154,12.2,17.2,86,0.00,,---,0.00,VWS V14.01,2013-02-09 18:50:00,
2013-02-09 12:55:00,73.0,68.6,29.89,ESE,121,14.2,16.2,86,0.00,,---,0.00,VWS V14.01,2013-02-09 18:55:00,
2013-02-09 13:00:00,72.5,67.7,29.89,SE,127,10.2,24.2,85,0.00,,---,0.00,VWS V14.01,2013-02-09 19:00:00,
2013-02-09 13:05:00,72.1,67.7,29.87,SE,145,8.2,22.2,86,0.00,,---,0.00,VWS V14.01,2013-02-09 19:05:00,
2013-02-09 13:10:00,72.1,68.0,29.87,SE,130,12.2,17.2,87,0.00,,---,0.00,VWS V14.01,2013-02-09 19:10:00,
2013-02-09 13:14:00,72.0,67.9,29.87,SE,130,11.2,21.2,87,0.00,,---,0.00,VWS V14.01,2013-02-09 19:14:00,
2013-02-09 13:15:00,71.5,68.1,29.83,SE,136,18.2,19.2,89,0.00,,---,0.00,VWS V14.01,2013-02-09 19:15:00,
2013-02-09 13:19:00,71.8,67.7,29.86,SSE,150,17.2,18.2,87,0.00,,---,0.00,VWS V14.01,2013-02-09 19:19:00,
2013-02-09 13:20:00,71.6,68.2,29.83,SSE,148,17.2,20.2,89,0.00,,---,0.00,VWS V14.01,2013-02-09 19:20:00,
2013-02-09 13:24:00,71.8,68.1,29.86,SE,139,13.2,24.2,88,0.00,,---,0.00,VWS V14.01,2013-02-09 19:24:00,
2013-02-09 13:25:00,71.5,68.1,29.83,ESE,121,10.2,18.2,89,0.00,,---,0.00,VWS V14.01,2013-02-09 19:25:00,
2013-02-09 13:29:00,72.0,68.3,29.86,SE,130,13.2,19.2,88,0.00,,---,0.00,VWS V14.01,2013-02-09 19:29:00,
2013-02-09 13:30:00,71.3,68.2,29.82,SE,126,10.2,20.2,90,0.00,,---,0.00,VWS V14.01,2013-02-09 19:30:00,
2013-02-09 13:34:00,71.8,68.1,29.85,SE,131,8.2,18.2,88,0.00,,---,0.00,VWS V14.01,2013-02-09 19:34:00,
2013-02-09 13:35:00,71.3,68.2,29.82,SE,135,21.2,21.2,90,0.00,,---,0.00,VWS V14.01,2013-02-09 19:35:00,
2013-02-09 13:39:00,71.6,67.9,29.85,SE,145,14.2,18.2,88,0.00,,---,0.00,VWS V14.01,2013-02-09 19:39:00,
2013-02-09 13:40:00,71.6,68.5,29.82,SSE,150,13.2,21.2,90,0.00,,---,0.00,VWS V14.01,2013-02-09 19:40:00,
2013-02-09 13:44:00,71.6,67.9,29.85,SE,125,10.2,20.2,88,0.00,,---,0.00,VWS V14.01,2013-02-09 19:44:00,
2013-02-09 13:45:00,71.6,68.2,29.81,SSE,154,12.2,19.2,89,0.00,,---,0.00,VWS V14.01,2013-02-09 19:45:00,
2013-02-09 13:49:00,71.6,67.9,29.84,SE,129,11.2,21.2,88,0.00,,---,0.00,VWS V14.01,2013-02-09 19:49:00,
2013-02-09 13:50:00,71.6,68.5,29.81,ESE,119,7.2,20.2,90,0.00,,---,0.00,VWS V14.01,2013-02-09 19:50:00,
2013-02-09 13:54:00,71.6,67.9,29.84,ESE,119,8.2,18.2,88,0.00,,---,0.00,VWS V14.01,2013-02-09 19:54:00,
2013-02-09 13:55:00,71.6,68.5,29.81,ESE,110,11.2,19.2,90,0.00,,---,0.00,VWS V14.01,2013-02-09 19:55:00,
2013-02-09 13:59:00,71.5,68.1,29.84,SSE,159,17.2,19.2,89,0.00,,---,0.00,VWS V14.01,2013-02-09 19:59:00,
2013-02-09 14:00:00,71.6,68.5,29.81,ESE,115,19.2,20.2,90,0.00,,---,0.00,VWS V14.01,2013-02-09 20:00:00,
2013-02-09 14:04:00,71.3,67.9,29.83,SE,125,11.2,19.2,89,0.00,,---,0.00,VWS V14.01,2013-02-09 20:04:00,
2013-02-09 14:05:00,71.6,68.2,29.81,SE,128,15.2,20.2,89,0.00,,---,0.00,VWS V14.01,2013-02-09 20:05:00,
2013-02-09 14:09:00,71.5,68.1,29.83,SE,146,15.2,17.2,89,0.00,,---,0.00,VWS V14.01,2013-02-09 20:09:00,
2013-02-09 14:10:00,71.8,68.7,29.81,SE,137,10.2,19.2,90,0.00,,---,0.00,VWS V14.01,2013-02-09 20:10:00,
2013-02-09 14:14:00,71.5,68.1,29.83,SSE,153,17.2,19.2,89,0.00,,---,0.00,VWS V14.01,2013-02-09 20:14:00,
2013-02-09 14:15:00,72.0,68.6,29.79,SE,136,11.2,20.2,89,0.00,,---,0.00,VWS V14.01,2013-02-09 20:15:00,
2013-02-09 14:19:00,71.5,68.1,29.82,SE,142,10.2,20.2,89,0.00,,---,0.00,VWS V14.01,2013-02-09 20:19:00,
2013-02-09 14:20:00,71.8,68.4,29.79,SE,129,11.2,20.2,89,0.00,,---,0.00,VWS V14.01,2013-02-09 20:20:00,
2013-02-09 14:24:00,71.5,68.1,29.82,SSE,150,7.2,18.2,89,0.00,,---,0.00,VWS V14.01,2013-02-09 20:24:00,
2013-02-09 14:25:00,71.6,68.5,29.79,SE,136,11.2,20.2,90,0.00,,---,0.00,VWS V14.01,2013-02-09 20:25:00,
2013-02-09 14:29:00,71.5,68.1,29.82,ESE,104,12.2,20.2,89,0.00,,---,0.00,VWS V14.01,2013-02-09 20:29:00,
2013-02-09 14:30:00,71.6,68.5,29.79,SE,130,11.2,18.2,90,0.00,,---,0.00,VWS V14.01,2013-02-09 20:30:00,
2013-02-09 14:34:00,71.3,68.2,29.82,SE,141,8.2,19.2,90,0.00,,---,0.00,VWS V14.01,2013-02-09 20:34:00,
2013-02-09 14:35:00,71.6,68.8,29.79,ESE,116,7.2,18.2,91,0.00,,---,0.00,VWS V14.01,2013-02-09 20:35:00,
2013-02-09 14:39:00,71.6,68.5,29.82,SE,141,6.2,21.2,90,0.00,,---,0.00,VWS V14.01,2013-02-09 20:39:00,
2013-02-09 14:40:00,71.5,68.7,29.79,SSE,150,12.2,19.2,91,0.00,,---,0.00,VWS V14.01,2013-02-09 20:40:00,
2013-02-09 14:44:00,71.6,68.2,29.82,ESE,122,14.2,19.2,89,0.00,,---,0.00,VWS V14.01,2013-02-09 20:44:00,
2013-02-09 14:45:00,71.3,68.5,29.78,SSE,153,14.2,19.2,91,0.00,,---,0.00,VWS V14.01,2013-02-09 20:45:00,
2013-02-09 14:49:00,71.6,68.5,29.81,SE,137,13.2,20.2,90,0.00,,---,0.00,VWS V14.01,2013-02-09 20:49:00,
2013-02-09 14:50:00,71.1,68.7,29.78,SSE,151,8.2,21.2,92,0.00,,---,0.00,VWS V14.01,2013-02-09 20:50:00,
2013-02-09 14:54:00,71.6,68.5,29.81,SSE,151,7.2,19.2,90,0.00,,---,0.00,VWS V14.01,2013-02-09 20:54:00,
2013-02-09 14:55:00,71.1,68.7,29.78,ESE,106,5.2,22.2,92,0.00,,---,0.00,VWS V14.01,2013-02-09 20:55:00,
2013-02-09 14:59:00,71.6,68.5,29.81,SSE,154,14.2,20.2,90,0.00,,---,0.00,VWS V14.01,2013-02-09 20:59:00,
2013-02-09 15:00:00,70.9,68.5,29.78,SE,131,10.2,18.2,92,0.00,,---,0.00,VWS V14.01,2013-02-09 21:00:00,
2013-02-09 15:04:00,71.8,68.4,29.81,SE,124,17.2,20.2,89,0.00,,---,0.00,VWS V14.01,2013-02-09 21:04:00,
2013-02-09 15:05:00,70.9,68.5,29.78,SE,144,13.2,18.2,92,0.00,,---,0.00,VWS V14.01,2013-02-09 21:05:00,
2013-02-09 15:09:00,71.6,68.5,29.81,ESE,112,14.2,19.2,90,0.00,,---,0.00,VWS V14.01,2013-02-09 21:09:00,
2013-02-09 15:10:00,70.9,68.5,29.78,East,84,8.2,19.2,92,0.00,,---,0.00,VWS V14.01,2013-02-09 21:10:00,
2013-02-09 15:14:00,72.0,68.6,29.81,ESE,103,17.2,19.2,89,0.00,,---,0.00,VWS V14.01,2013-02-09 21:14:00,
2013-02-09 15:15:00,71.1,68.7,29.78,SSE,153,14.2,17.2,92,0.00,,---,0.00,VWS V14.01,2013-02-09 21:15:00,
2013-02-09 15:19:00,71.8,68.4,29.79,ESE,109,15.2,20.2,89,0.00,,---,0.00,VWS V14.01,2013-02-09 21:19:00,
2013-02-09 15:20:00,71.3,68.9,29.78,East,100,9.2,17.2,92,0.00,,---,0.00,VWS V14.01,2013-02-09 21:20:00,
2013-02-09 15:24:00,71.8,68.7,29.79,SE,128,15.2,19.2,90,0.00,,---,0.00,VWS V14.01,2013-02-09 21:24:00,
2013-02-09 15:25:00,71.5,69.1,29.78,SSE,154,8.2,18.2,92,0.00,,---,0.00,VWS V14.01,2013-02-09 21:25:00,
2013-02-09 15:29:00,71.6,68.5,29.79,SE,142,10.2,18.2,90,0.00,,---,0.00,VWS V14.01,2013-02-09 21:29:00,
2013-02-09 15:30:00,71.3,68.9,29.76,SE,136,19.2,25.2,92,0.00,,---,0.00,VWS V14.01,2013-02-09 21:30:00,
2013-02-09 15:34:00,71.6,68.5,29.79,ESE,114,11.2,18.2,90,0.00,,---,0.00,VWS V14.01,2013-02-09 21:34:00,
2013-02-09 15:35:00,71.3,68.9,29.76,SE,139,15.2,19.2,92,0.00,,---,0.00,VWS V14.01,2013-02-09 21:35:00,
2013-02-09 15:39:00,71.6,68.8,29.79,SSE,148,16.2,19.2,91,0.00,,---,0.00,VWS V14.01,2013-02-09 21:39:00,
2013-02-09 15:40:00,71.3,68.9,29.76,SE,137,18.2,20.2,92,0.00,,---,0.00,VWS V14.01,2013-02-09 21:40:00,
2013-02-09 15:44:00,71.5,68.7,29.79,ESE,115,15.2,18.2,91,0.00,,---,0.00,VWS V14.01,2013-02-09 21:44:00,
2013-02-09 15:45:00,71.3,68.9,29.76,SE,143,11.2,19.2,92,0.00,,---,0.00,VWS V14.01,2013-02-09 21:45:00,
2013-02-09 15:49:00,71.1,68.7,29.78,SE,146,17.2,21.2,92,0.00,,---,0.00,VWS V14.01,2013-02-09 21:49:00,
2013-02-09 15:50:00,71.1,68.7,29.76,ESE,122,10.2,22.2,92,0.00,,---,0.00,VWS V14.01,2013-02-09 21:50:00,
2013-02-09 15:54:00,71.1,68.7,29.78,SE,139,12.2,22.2,92,0.00,,---,0.00,VWS V14.01,2013-02-09 21:54:00,
2013-02-09 15:55:00,71.1,69.0,29.76,SE,138,13.2,21.2,93,0.00,,---,0.00,VWS V14.01,2013-02-09 21:55:00,
2013-02-09 15:59:00,71.1,68.7,29.78,SE,142,11.2,18.2,92,0.00,,---,0.00,VWS V14.01,2013-02-09 21:59:00,
2013-02-09 16:00:00,70.9,68.8,29.76,SE,127,7.2,20.2,93,0.00,,---,0.00,VWS V14.01,2013-02-09 22:00:00,
2013-02-09 16:04:00,70.9,68.5,29.78,SSE,154,10.2,18.2,92,0.00,,---,0.00,VWS V14.01,2013-02-09 22:04:00,
2013-02-09 16:05:00,70.8,68.7,29.76,SSE,153,13.2,23.2,93,0.00,,---,0.00,VWS V14.01,2013-02-09 22:05:00,
2013-02-09 16:09:00,70.9,68.5,29.78,ESE,112,14.2,16.2,92,0.00,,---,0.00,VWS V14.01,2013-02-09 22:09:00,
2013-02-09 16:10:00,70.6,68.8,29.76,SE,131,12.2,21.2,94,0.00,,---,0.00,VWS V14.01,2013-02-09 22:10:00,
2013-02-09 16:14:00,71.1,68.7,29.78,SE,128,11.2,17.2,92,0.00,,---,0.00,VWS V14.01,2013-02-09 22:14:00,
2013-02-09 16:15:00,70.6,68.2,29.75,SSE,162,10.2,18.2,92,0.00,,---,0.00,VWS V14.01,2013-02-09 22:15:00,
2013-02-09 16:19:00,71.3,68.9,29.78,SE,132,10.2,17.2,92,0.00,,---,0.00,VWS V14.01,2013-02-09 22:19:00,
2013-02-09 16:20:00,70.6,68.8,29.75,SSE,157,10.2,20.2,94,0.00,,---,0.00,VWS V14.01,2013-02-09 22:20:00,
2013-02-09 16:24:00,71.3,68.9,29.78,SSE,159,8.2,18.2,92,0.00,,---,0.00,VWS V14.01,2013-02-09 22:24:00,
2013-02-09 16:25:00,70.4,68.6,29.75,SSE,150,12.2,23.2,94,0.00,,---,0.00,VWS V14.01,2013-02-09 22:25:00,
2013-02-09 16:29:00,71.5,69.1,29.78,ESE,122,15.2,25.2,92,0.00,,---,0.00,VWS V14.01,2013-02-09 22:29:00,
2013-02-09 16:30:00,70.4,68.9,29.75,SE,141,10.2,20.2,95,0.00,,---,0.00,VWS V14.01,2013-02-09 22:30:00,
2013-02-09 16:34:00,71.3,68.9,29.76,SSE,155,16.2,19.2,92,0.00,,---,0.00,VWS V14.01,2013-02-09 22:34:00,
2013-02-09 16:35:00,70.3,68.8,29.75,SSE,152,11.2,24.2,95,0.00,,---,0.00,VWS V14.01,2013-02-09 22:35:00,
2013-02-09 16:39:00,71.3,68.9,29.76,SE,124,10.2,20.2,92,0.00,,---,0.00,VWS V14.01,2013-02-09 22:39:00,
2013-02-09 16:40:00,70.1,68.6,29.75,SSE,148,18.2,21.2,95,0.00,,---,0.00,VWS V14.01,2013-02-09 22:40:00,
2013-02-09 16:44:00,71.3,68.9,29.76,SE,127,13.2,19.2,92,0.00,,---,0.00,VWS V14.01,2013-02-09 22:44:00,
2013-02-09 16:45:00,69.9,68.4,29.74,SE,144,15.2,21.2,95,0.00,,---,0.00,VWS V14.01,2013-02-09 22:45:00,
2013-02-09 16:49:00,71.1,68.7,29.76,ESE,117,13.2,22.2,92,0.00,,---,0.00,VWS V14.01,2013-02-09 22:49:00,
2013-02-09 16:50:00,69.8,68.3,29.74,South,171,12.2,23.2,95,0.00,,---,0.00,VWS V14.01,2013-02-09 22:50:00,
2013-02-09 16:54:00,71.1,69.0,29.76,ESE,119,18.2,18.2,93,0.00,,---,0.00,VWS V14.01,2013-02-09 22:54:00,
2013-02-09 16:55:00,69.8,68.6,29.74,SE,136,18.2,22.2,96,0.00,,---,0.00,VWS V14.01,2013-02-09 22:55:00,
2013-02-09 16:59:00,70.9,68.8,29.76,SSE,157,11.2,19.2,93,0.00,,---,0.00,VWS V14.01,2013-02-09 22:59:00,
2013-02-09 17:00:00,69.6,68.4,29.75,SE,129,12.2,19.2,96,0.00,,---,0.00,VWS V14.01,2013-02-09 23:00:00,
2013-02-09 17:04:00,70.8,68.7,29.76,SSE,150,9.2,23.2,93,0.00,,---,0.00,VWS V14.01,2013-02-09 23:04:00,
2013-02-09 17:05:00,69.6,68.4,29.75,SSE,165,13.2,21.2,96,0.00,,---,0.00,VWS V14.01,2013-02-09 23:05:00,
2013-02-09 17:09:00,70.6,68.8,29.76,ESE,120,8.2,21.2,94,0.00,,---,0.00,VWS V14.01,2013-02-09 23:09:00,
2013-02-09 17:10:00,69.6,68.4,29.75,SSE,151,18.2,22.2,96,0.00,,---,0.00,VWS V14.01,2013-02-09 23:10:00,
2013-02-09 17:14:00,70.6,68.8,29.76,SE,135,11.2,18.2,94,0.00,,---,0.00,VWS V14.01,2013-02-09 23:14:00,
2013-02-09 17:15:00,69.6,68.4,29.74,SSE,161,13.2,22.2,96,0.00,,---,0.00,VWS V14.01,2013-02-09 23:15:00,
2013-02-09 17:19:00,70.6,68.8,29.75,SE,128,12.2,20.2,94,0.00,,---,0.00,VWS V14.01,2013-02-09 23:19:00,
2013-02-09 17:20:00,69.4,68.5,29.74,SE,136,18.2,22.2,97,0.00,,---,0.00,VWS V14.01,2013-02-09 23:20:00,
2013-02-09 17:24:00,70.4,68.6,29.75,SE,125,11.2,19.2,94,0.00,,---,0.00,VWS V14.01,2013-02-09 23:24:00,
2013-02-09 17:25:00,69.4,68.5,29.74,SE,137,17.2,20.2,97,0.00,,---,0.00,VWS V14.01,2013-02-09 23:25:00,
2013-02-09 17:29:00,70.4,68.9,29.75,SE,132,11.2,20.2,95,0.00,,---,0.00,VWS V14.01,2013-02-09 23:29:00,
2013-02-09 17:30:00,69.3,68.4,29.74,SE,130,17.2,21.2,97,0.00,,---,0.00,VWS V14.01,2013-02-09 23:30:00,
2013-02-09 17:34:00,70.3,68.8,29.75,SE,130,6.2,24.2,95,0.00,,---,0.00,VWS V14.01,2013-02-09 23:34:00,
2013-02-09 17:35:00,69.3,68.4,29.74,SE,137,13.2,18.2,97,0.00,,---,0.00,VWS V14.01,2013-02-09 23:35:00,
2013-02-09 17:39:00,70.1,68.6,29.75,SSE,152,13.2,21.2,95,0.00,,---,0.00,VWS V14.01,2013-02-09 23:39:00,
2013-02-09 17:40:00,69.3,68.4,29.74,SSE,153,11.2,23.2,97,0.00,,---,0.00,VWS V14.01,2013-02-09 23:40:00,
2013-02-09 17:44:00,69.9,68.4,29.75,East,97,13.2,21.2,95,0.00,,---,0.00,VWS V14.01,2013-02-09 23:44:00,
2013-02-09 17:45:00,69.3,68.4,29.74,SSE,163,10.2,20.2,97,0.00,,---,0.00,VWS V14.01,2013-02-09 23:45:00,
2013-02-09 17:49:00,69.8,68.3,29.74,SSE,156,11.2,23.2,95,0.00,,---,0.00,VWS V14.01,2013-02-09 23:49:00,
2013-02-09 17:50:00,69.3,68.4,29.74,SE,143,13.2,20.2,97,0.00,,---,0.00,VWS V14.01,2013-02-09 23:50:00,
2013-02-09 17:54:00,69.8,68.6,29.74,SE,146,16.2,22.2,96,0.00,,---,0.00,VWS V14.01,2013-02-09 23:54:00,
2013-02-09 17:55:00,69.3,68.4,29.74,SE,144,13.2,20.2,97,0.00,,---,0.00,VWS V14.01,2013-02-09 23:55:00,
2013-02-09 17:59:00,69.6,68.4,29.74,SE,132,10.2,19.2,96,0.00,,---,0.00,VWS V14.01,2013-02-09 23:59:00,
2013-02-09 18:00:00,69.3,68.7,29.74,SSE,157,11.2,23.2,98,0.00,,---,0.00,VWS V14.01,2013-02-10 00:00:00,
2013-02-09 18:04:00,69.6,68.4,29.75,SSE,151,10.2,19.2,96,0.00,,---,0.00,VWS V14.01,2013-02-10 00:04:00,
2013-02-09 18:05:00,69.3,68.7,29.74,SE,144,11.2,18.2,98,0.00,,---,0.00,VWS V14.01,2013-02-10 00:05:00,
2013-02-09 18:09:00,69.6,68.4,29.75,SE,144,12.2,22.2,96,0.00,,---,0.00,VWS V14.01,2013-02-10 00:09:00,
2013-02-09 18:10:00,69.3,68.7,29.74,SE,145,13.2,21.2,98,0.00,,---,0.00,VWS V14.01,2013-02-10 00:10:00,
2013-02-09 18:14:00,69.6,68.4,29.75,ESE,111,12.2,22.2,96,0.00,,---,0.00,VWS V14.01,2013-02-10 00:14:00,
2013-02-09 18:15:00,69.4,68.8,29.74,SSE,148,16.2,17.2,98,0.00,,---,0.00,VWS V14.01,2013-02-10 00:15:00,
2013-02-09 18:19:00,69.4,68.5,29.74,SE,144,19.2,22.2,97,0.00,,---,0.00,VWS V14.01,2013-02-10 00:19:00,
2013-02-09 18:20:00,69.4,68.8,29.74,SE,146,7.2,17.2,98,0.00,,---,0.00,VWS V14.01,2013-02-10 00:20:00,
2013-02-09 18:24:00,69.4,68.5,29.74,SE,129,12.2,19.2,97,0.00,,---,0.00,VWS V14.01,2013-02-10 00:24:00,
2013-02-09 18:25:00,69.4,68.8,29.74,SE,146,7.2,18.2,98,0.00,,---,0.00,VWS V14.01,2013-02-10 00:25:00,
2013-02-09 18:29:00,69.3,68.4,29.74,SSE,160,10.2,21.2,97,0.00,,---,0.00,VWS V14.01,2013-02-10 00:29:00,
2013-02-09 18:30:00,69.4,68.8,29.75,SSE,148,10.2,18.2,98,0.00,,---,0.00,VWS V14.01,2013-02-10 00:30:00,
2013-02-09 18:34:00,69.3,68.4,29.74,SSE,158,16.2,18.2,97,0.00,,---,0.00,VWS V14.01,2013-02-10 00:34:00,
2013-02-09 18:35:00,69.4,68.8,29.75,SSE,151,7.2,17.2,98,0.00,,---,0.00,VWS V14.01,2013-02-10 00:35:00,
2013-02-09 18:39:00,69.3,68.4,29.74,SE,140,11.2,23.2,97,0.00,,---,0.00,VWS V14.01,2013-02-10 00:39:00,
2013-02-09 18:40:00,69.4,68.8,29.75,South,189,14.2,19.2,98,0.00,,---,0.00,VWS V14.01,2013-02-10 00:40:00,
2013-02-09 18:44:00,69.3,68.4,29.74,SE,131,13.2,17.2,97,0.00,,---,0.00,VWS V14.01,2013-02-10 00:44:00,
2013-02-09 18:45:00,69.4,68.8,29.75,SSE,164,11.2,17.2,98,0.00,,---,0.00,VWS V14.01,2013-02-10 00:45:00,
2013-02-09 18:49:00,69.3,68.4,29.74,SE,142,19.2,19.2,97,0.00,,---,0.00,VWS V14.01,2013-02-10 00:49:00,
2013-02-09 18:50:00,69.6,69.0,29.75,SSE,150,6.2,20.2,98,0.00,,---,0.00,VWS V14.01,2013-02-10 00:50:00,
2013-02-09 18:54:00,69.3,68.4,29.74,SE,134,13.2,20.2,97,0.00,,---,0.00,VWS V14.01,2013-02-10 00:54:00,
2013-02-09 18:55:00,69.6,69.0,29.75,SE,136,9.2,16.2,98,0.00,,---,0.00,VWS V14.01,2013-02-10 00:55:00,
2013-02-09 18:59:00,69.3,68.7,29.74,SE,146,16.2,23.2,98,0.00,,---,0.00,VWS V14.01,2013-02-10 00:59:00,
2013-02-09 19:00:00,69.6,69.0,29.75,SE,140,7.2,16.2,98,0.00,,---,0.00,VWS V14.01,2013-02-10 01:00:00,
2013-02-09 19:04:00,69.3,68.7,29.74,SE,142,11.2,18.2,98,0.00,,---,0.00,VWS V14.01,2013-02-10 01:04:00,
2013-02-09 19:05:00,69.4,68.8,29.75,SE,140,12.2,19.2,98,0.00,,---,0.00,VWS V14.01,2013-02-10 01:05:00,
2013-02-09 19:09:00,69.3,68.7,29.74,SSE,153,9.2,21.2,98,0.00,,---,0.00,VWS V14.01,2013-02-10 01:09:00,
2013-02-09 19:10:00,69.4,68.8,29.75,SE,140,10.2,21.2,98,0.00,,---,0.00,VWS V14.01,2013-02-10 01:10:00,
2013-02-09 19:14:00,69.3,68.7,29.74,SE,136,14.2,16.2,98,0.00,,---,0.00,VWS V14.01,2013-02-10 01:14:00,
2013-02-09 19:15:00,69.6,69.0,29.75,SSE,158,11.2,18.2,98,0.00,,---,0.00,VWS V14.01,2013-02-10 01:15:00,
2013-02-09 19:19:00,69.4,68.8,29.74,SE,134,8.2,17.2,98,0.00,,---,0.00,VWS V14.01,2013-02-10 01:19:00,
2013-02-09 19:20:00,69.4,68.8,29.75,SSE,147,9.2,18.2,98,0.00,,---,0.00,VWS V14.01,2013-02-10 01:20:00,
2013-02-09 19:24:00,69.4,68.8,29.74,SSE,148,17.2,17.2,98,0.00,,---,0.00,VWS V14.01,2013-02-10 01:24:00,
2013-02-09 19:25:00,69.4,69.1,29.75,SSE,150,15.2,22.2,99,0.00,,---,0.00,VWS V14.01,2013-02-10 01:25:00,
2013-02-09 19:29:00,69.4,68.8,29.74,SSE,163,6.2,17.2,98,0.00,,---,0.00,VWS V14.01,2013-02-10 01:29:00,
2013-02-09 19:30:00,69.4,69.1,29.75,SSE,154,11.2,19.2,99,0.00,,---,0.00,VWS V14.01,2013-02-10 01:30:00,
2013-02-09 19:34:00,69.4,68.8,29.75,SSE,148,17.2,17.2,98,0.00,,---,0.00,VWS V14.01,2013-02-10 01:34:00,
2013-02-09 19:35:00,69.4,69.1,29.75,SSE,163,8.2,16.2,99,0.00,,---,0.00,VWS V14.01,2013-02-10 01:35:00,
2013-02-09 19:39:00,69.4,68.8,29.75,SE,138,12.2,19.2,98,0.00,,---,0.00,VWS V14.01,2013-02-10 01:39:00,
2013-02-09 19:40:00,69.4,69.1,29.75,SE,143,10.2,17.2,99,0.00,,---,0.00,VWS V14.01,2013-02-10 01:40:00,
2013-02-09 19:44:00,69.4,68.8,29.75,SE,145,8.2,17.2,98,0.00,,---,0.00,VWS V14.01,2013-02-10 01:44:00,
2013-02-09 19:45:00,69.4,69.1,29.75,SE,146,10.2,17.2,99,0.00,,---,0.00,VWS V14.01,2013-02-10 01:45:00,
2013-02-09 19:49:00,69.4,68.8,29.75,SE,135,5.2,20.2,98,0.00,,---,0.00,VWS V14.01,2013-02-10 01:49:00,
2013-02-09 19:50:00,69.4,69.1,29.75,SE,124,6.2,17.2,99,0.00,,---,0.00,VWS V14.01,2013-02-10 01:50:00,
2013-02-09 19:54:00,69.6,69.0,29.75,SE,145,16.2,16.2,98,0.00,,---,0.00,VWS V14.01,2013-02-10 01:54:00,
2013-02-09 19:55:00,69.3,69.0,29.75,SE,130,13.2,17.2,99,0.00,,---,0.00,VWS V14.01,2013-02-10 01:55:00,
2013-02-09 19:59:00,69.6,69.0,29.75,SSE,155,11.2,16.2,98,0.00,,---,0.00,VWS V14.01,2013-02-10 01:59:00,
2013-02-09 20:00:00,69.3,69.0,29.77,SSE,155,6.2,16.2,99,0.00,,---,0.00,VWS V14.01,2013-02-10 02:00:00,
2013-02-09 20:04:00,69.4,68.8,29.75,ESE,123,10.2,19.2,98,0.00,,---,0.00,VWS V14.01,2013-02-10 02:04:00,
2013-02-09 20:05:00,69.3,69.0,29.77,SE,128,7.2,14.2,99,0.00,,---,0.00,VWS V14.01,2013-02-10 02:05:00,
2013-02-09 20:09:00,69.4,68.8,29.75,South,169,12.2,21.2,98,0.00,,---,0.00,VWS V14.01,2013-02-10 02:09:00,
2013-02-09 20:10:00,69.3,69.0,29.77,SSE,149,5.2,14.2,99,0.00,,---,0.00,VWS V14.01,2013-02-10 02:10:00,
2013-02-09 20:14:00,69.6,69.0,29.75,South,187,6.2,18.2,98,0.00,,---,0.00,VWS V14.01,2013-02-10 02:14:00,
2013-02-09 20:15:00,69.3,69.0,29.78,SSE,160,5.2,14.2,99,0.00,,---,0.00,VWS V14.01,2013-02-10 02:15:00,
2013-02-09 20:19:00,69.4,68.8,29.75,SE,143,9.2,18.2,98,0.00,,---,0.00,VWS V14.01,2013-02-10 02:19:00,
2013-02-09 20:20:00,69.3,69.0,29.78,SSE,154,9.2,14.2,99,0.00,,---,0.00,VWS V14.01,2013-02-10 02:20:00,
2013-02-09 20:24:00,69.4,68.8,29.75,SSE,150,13.2,18.2,98,0.00,,---,0.00,VWS V14.01,2013-02-10 02:24:00,
2013-02-09 20:25:00,69.3,69.0,29.78,SSE,157,10.2,12.2,99,0.00,,---,0.00,VWS V14.01,2013-02-10 02:25:00,
2013-02-09 20:29:00,69.4,69.1,29.75,SE,132,7.2,19.2,99,0.00,,---,0.00,VWS V14.01,2013-02-10 02:29:00,
2013-02-09 20:30:00,69.3,69.0,29.78,SSE,157,11.2,15.2,99,0.00,,---,0.00,VWS V14.01,2013-02-10 02:30:00,
2013-02-09 20:34:00,69.4,69.1,29.75,SE,145,13.2,16.2,99,0.00,,---,0.00,VWS V14.01,2013-02-10 02:34:00,
2013-02-09 20:35:00,69.3,69.0,29.78,SE,137,12.2,15.2,99,0.00,,---,0.00,VWS V14.01,2013-02-10 02:35:00,
2013-02-09 20:39:00,69.4,69.1,29.75,SSE,149,11.2,17.2,99,0.00,,---,0.00,VWS V14.01,2013-02-10 02:39:00,
2013-02-09 20:40:00,69.1,68.8,29.78,SE,144,12.2,13.2,99,0.00,,---,0.00,VWS V14.01,2013-02-10 02:40:00,
2013-02-09 20:44:00,69.4,69.1,29.75,SE,146,12.2,17.2,99,0.00,,---,0.00,VWS V14.01,2013-02-10 02:44:00,
2013-02-09 20:45:00,69.1,68.8,29.78,ESE,119,10.2,12.2,99,0.00,,---,0.00,VWS V14.01,2013-02-10 02:45:00,
2013-02-09 20:49:00,69.4,69.1,29.75,SE,142,11.2,16.2,99,0.00,,---,0.00,VWS V14.01,2013-02-10 02:49:00,
2013-02-09 20:50:00,69.1,68.8,29.78,SSE,147,7.2,14.2,99,0.00,,---,0.00,VWS V14.01,2013-02-10 02:50:00,
2013-02-09 20:54:00,69.3,69.0,29.75,SE,137,10.2,16.2,99,0.00,,---,0.00,VWS V14.01,2013-02-10 02:54:00,
2013-02-09 20:55:00,69.1,68.8,29.78,SE,133,6.2,12.2,99,0.00,,---,0.00,VWS V14.01,2013-02-10 02:55:00,
2013-02-09 20:59:00,69.3,69.0,29.75,SE,139,7.2,16.2,99,0.00,,---,0.00,VWS V14.01,2013-02-10 02:59:00,
2013-02-09 21:00:00,68.9,68.6,29.78,SSE,157,7.2,14.2,99,0.00,,---,0.00,VWS V14.01,2013-02-10 03:00:00,
2013-02-09 21:04:00,69.3,69.0,29.76,SSE,151,7.2,14.2,99,0.00,,---,0.00,VWS V14.01,2013-02-10 03:04:00,
2013-02-09 21:05:00,68.9,68.6,29.78,SSE,152,9.2,13.2,99,0.00,,---,0.00,VWS V14.01,2013-02-10 03:05:00,
2013-02-09 21:09:00,69.3,69.0,29.76,SSE,159,8.2,14.2,99,0.00,,---,0.00,VWS V14.01,2013-02-10 03:09:00,
2013-02-09 21:10:00,68.9,68.6,29.78,SSE,167,7.2,13.2,99,0.00,,---,0.00,VWS V14.01,2013-02-10 03:10:00,
2013-02-09 21:14:00,69.3,69.0,29.76,SE,135,6.2,14.2,99,0.00,,---,0.00,VWS V14.01,2013-02-10 03:14:00,
2013-02-09 21:15:00,68.9,68.6,29.78,SE,146,11.2,14.2,99,0.00,,---,0.00,VWS V14.01,2013-02-10 03:15:00,
2013-02-09 21:19:00,69.4,69.1,29.78,SE,141,10.2,13.2,99,0.00,,---,0.00,VWS V14.01,2013-02-10 03:19:00,
2013-02-09 21:20:00,69.1,68.8,29.78,SSE,153,8.2,15.2,99,0.00,,---,0.00,VWS V14.01,2013-02-10 03:20:00,
2013-02-09 21:24:00,69.3,69.0,29.78,SE,141,10.2,12.2,99,0.00,,---,0.00,VWS V14.01,2013-02-10 03:24:00,
2013-02-09 21:25:00,69.1,68.8,29.78,SE,133,8.2,13.2,99,0.00,,---,0.00,VWS V14.01,2013-02-10 03:25:00,
2013-02-09 21:29:00,69.3,69.0,29.78,SSE,147,6.2,15.2,99,0.00,,---,0.00,VWS V14.01,2013-02-10 03:29:00,
2013-02-09 21:30:00,69.3,69.0,29.78,SE,143,5.2,15.2,99,0.00,,---,0.00,VWS V14.01,2013-02-10 03:30:00,
2013-02-09 21:34:00,69.3,69.0,29.78,SE,144,8.2,11.2,99,0.00,,---,0.00,VWS V14.01,2013-02-10 03:34:00,
2013-02-09 21:35:00,69.6,69.3,29.78,SSE,153,12.2,16.2,99,0.00,,---,0.00,VWS V14.01,2013-02-10 03:35:00,
2013-02-09 21:39:00,69.1,68.8,29.78,SSE,155,10.2,13.2,99,0.00,,---,0.00,VWS V14.01,2013-02-10 03:39:00,
2013-02-09 21:40:00,69.6,69.3,29.78,SSE,156,7.2,14.2,99,0.00,,---,0.00,VWS V14.01,2013-02-10 03:40:00,
2013-02-09 21:44:00,69.1,68.8,29.78,SSE,150,6.2,12.2,99,0.00,,---,0.00,VWS V14.01,2013-02-10 03:44:00,
2013-02-09 21:45:00,69.6,69.3,29.78,SSE,148,6.2,14.2,99,0.00,,---,0.00,VWS V14.01,2013-02-10 03:45:00,
2013-02-09 21:49:00,69.1,68.8,29.78,SE,144,12.2,14.2,99,0.00,,---,0.00,VWS V14.01,2013-02-10 03:49:00,
2013-02-09 21:50:00,69.6,69.3,29.78,SSE,148,5.2,15.2,99,0.00,,---,0.00,VWS V14.01,2013-02-10 03:50:00,
2013-02-09 21:54:00,69.1,68.8,29.78,SSE,148,8.2,12.2,99,0.00,,---,0.00,VWS V14.01,2013-02-10 03:54:00,
2013-02-09 21:55:00,69.6,69.3,29.78,ESE,123,7.2,15.2,99,0.00,,---,0.00,VWS V14.01,2013-02-10 03:55:00,
2013-02-09 21:59:00,68.9,68.6,29.78,SE,140,11.2,13.2,99,0.00,,---,0.00,VWS V14.01,2013-02-10 03:59:00,
2013-02-09 22:00:00,69.4,69.1,29.78,SSE,151,12.2,14.2,99,0.00,,---,0.00,VWS V14.01,2013-02-10 04:00:00,
2013-02-09 22:04:00,68.9,68.6,29.78,SE,142,5.2,12.2,99,0.00,,---,0.00,VWS V14.01,2013-02-10 04:04:00,
2013-02-09 22:05:00,69.3,69.0,29.78,SSE,153,7.2,13.2,99,0.00,,---,0.00,VWS V14.01,2013-02-10 04:05:00,
2013-02-09 22:09:00,68.9,68.6,29.78,South,170,11.2,13.2,99,0.00,,---,0.00,VWS V14.01,2013-02-10 04:09:00,
2013-02-09 22:10:00,69.3,69.0,29.78,SE,136,11.2,14.2,99,0.00,,---,0.00,VWS V14.01,2013-02-10 04:10:00,
2013-02-09 22:14:00,68.9,68.6,29.78,SSE,165,14.2,14.2,99,0.00,,---,0.00,VWS V14.01,2013-02-10 04:14:00,
2013-02-09 22:15:00,69.3,69.0,29.77,SSE,147,7.2,14.2,99,0.00,,---,0.00,VWS V14.01,2013-02-10 04:15:00,
2013-02-09 22:19:00,69.1,68.8,29.78,SSE,147,8.2,15.2,99,0.00,,---,0.00,VWS V14.01,2013-02-10 04:19:00,
2013-02-09 22:20:00,69.1,68.8,29.77,SSE,165,11.2,16.2,99,0.00,,---,0.00,VWS V14.01,2013-02-10 04:20:00,
2013-02-09 22:24:00,69.1,69.1,29.78,SE,138,7.2,13.2,100,0.00,,---,0.00,VWS V14.01,2013-02-10 04:24:00,
2013-02-09 22:25:00,69.1,68.8,29.77,SE,146,9.2,17.2,99,0.00,,---,0.00,VWS V14.01,2013-02-10 04:25:00,
2013-02-09 22:29:00,69.3,69.0,29.78,SSE,159,10.2,14.2,99,0.00,,---,0.00,VWS V14.01,2013-02-10 04:29:00,
2013-02-09 22:30:00,69.1,68.8,29.76,SE,145,6.2,16.2,99,0.00,,---,0.00,VWS V14.01,2013-02-10 04:30:00,
2013-02-09 22:34:00,69.4,69.1,29.78,SSE,150,8.2,16.2,99,0.00,,---,0.00,VWS V14.01,2013-02-10 04:34:00,
2013-02-09 22:35:00,68.9,68.6,29.76,SE,133,15.2,15.2,99,0.00,,---,0.00,VWS V14.01,2013-02-10 04:35:00,
2013-02-09 22:39:00,69.6,69.3,29.78,ESE,117,10.2,14.2,99,0.00,,---,0.00,VWS V14.01,2013-02-10 04:39:00,
2013-02-09 22:40:00,68.9,68.6,29.76,SE,134,6.2,15.2,99,0.00,,---,0.00,VWS V14.01,2013-02-10 04:40:00,
2013-02-09 22:44:00,69.6,69.3,29.78,SE,137,14.2,14.2,99,0.00,,---,0.00,VWS V14.01,2013-02-10 04:44:00,
2013-02-09 22:45:00,68.9,68.6,29.76,South,173,8.2,17.2,99,0.00,,---,0.00,VWS V14.01,2013-02-10 04:45:00,
2013-02-09 22:49:00,69.6,69.3,29.78,SE,128,11.2,14.2,99,0.00,,---,0.00,VWS V14.01,2013-02-10 04:49:00,
2013-02-09 22:50:00,68.9,68.6,29.76,SSE,152,10.2,16.2,99,0.00,,---,0.00,VWS V14.01,2013-02-10 04:50:00,
2013-02-09 22:54:00,69.6,69.3,29.78,SE,146,8.2,15.2,99,0.00,,---,0.00,VWS V14.01,2013-02-10 04:54:00,
2013-02-09 22:55:00,69.1,68.8,29.76,SSE,151,7.2,16.2,99,0.00,,---,0.00,VWS V14.01,2013-02-10 04:55:00,
2013-02-09 22:59:00,69.4,69.1,29.78,SSE,165,10.2,14.2,99,0.00,,---,0.00,VWS V14.01,2013-02-10 04:59:00,
2013-02-09 23:00:00,69.4,69.1,29.78,SE,130,11.2,14.2,99,0.00,,---,0.00,VWS V14.01,2013-02-10 05:00:00,
2013-02-09 23:05:00,69.3,69.0,29.78,SSE,155,13.2,13.2,99,0.00,,---,0.00,VWS V14.01,2013-02-10 05:05:00,
2013-02-09 23:10:00,69.3,69.0,29.78,SSE,156,5.2,14.2,99,0.00,,---,0.00,VWS V14.01,2013-02-10 05:10:00,
2013-02-09 23:15:00,69.3,69.0,29.78,SE,135,12.2,14.2,99,0.00,,---,0.00,VWS V14.01,2013-02-10 05:15:00,
2013-02-09 23:20:00,69.1,68.8,29.77,SSE,161,6.2,16.2,99,0.00,,---,0.00,VWS V14.01,2013-02-10 05:20:00,
2013-02-09 23:25:00,69.1,68.8,29.77,SSE,150,7.2,17.2,99,0.00,,---,0.00,VWS V14.01,2013-02-10 05:25:00,
2013-02-09 23:30:00,69.1,68.8,29.77,SSE,160,8.2,13.2,99,0.00,,---,0.00,VWS V14.01,2013-02-10 05:30:00,
2013-02-09 23:35:00,68.9,68.6,29.76,SE,146,5.2,15.2,99,0.00,,---,0.00,VWS V14.01,2013-02-10 05:35:00,
2013-02-09 23:40:00,68.9,68.6,29.76,SSE,150,6.2,15.2,99,0.00,,---,0.00,VWS V14.01,2013-02-10 05:40:00,
2013-02-09 23:45:00,68.9,68.6,29.76,SSE,158,7.2,17.2,99,0.00,,---,0.00,VWS V14.01,2013-02-10 05:45:00,
2013-02-09 23:50:00,68.9,68.6,29.76,SE,146,10.2,16.2,99,0.00,,---,0.00,VWS V14.01,2013-02-10 05:50:00,
2013-02-09 23:55:00,68.9,68.6,29.76,SSE,160,7.2,14.2,99,0.00,,---,0.00,VWS V14.01,2013-02-10 05:55:00,